KN4CCE-13 Weather Reports


Display with metric or nautical units.
time (UTC)temp
F
wind
direction
speed
MPH
gust
MPH
rain 1hr
in
rain 24hr
in
rain mn
in
humidity
%
barometer
mb
20260906120017 73 255 0.0 0.0 0.00 0.07 0.00 95 1013.3
20260906114524 73 216 0.0 0.0 0.00 0.07 0.00 96 1013.2
20260906113024 73 216 0.0 0.0 0.00 0.07 0.00 96 1013.0
20260906111518 73 281 0.0 0.0 0.00 0.07 0.00 96 1012.8
20260906110011 73 281 0.0 0.0 0.00 0.07 0.00 97 1012.6
20260906104518 73 281 0.0 0.0 0.00 0.07 0.00 97 1012.5
20260906103026 72 281 0.0 0.0 0.00 0.07 0.00 97 1012.3
20260906101530 73 281 0.0 0.0 0.00 0.07 0.00 97 1012.3
20260906100012 72 281 0.0 0.0 0.00 0.07 0.00 97 1012.1
20260906094512 72 280 0.0 0.0 0.00 0.07 0.00 97 1011.8
20260906093023 72 215 0.0 0.0 0.00 0.07 0.00 97 1011.5
20260906091516 72 215 0.0 0.0 0.00 0.07 0.00 98 1011.4
20260906090015 72 212 0.0 0.0 0.00 0.07 0.00 98 1011.2
20260906084505 72 275 0.0 0.0 0.00 0.07 0.00 98 1011.1
20260906083018 72 275 0.0 0.0 0.00 0.07 0.00 98 1011.1
20260906081521 72 275 0.0 0.0 0.00 0.07 0.00 98 1011.1
20260906080022 71 275 0.0 0.0 0.00 0.07 0.00 97 1011.0
20260906074506 71 275 0.0 0.0 0.00 0.07 0.00 97 1010.8
20260906073009 72 275 0.0 0.0 0.00 0.07 0.00 97 1010.6
20260906071505 71 275 0.0 0.0 0.00 0.07 0.00 97 1010.6
20260906070029 72 275 0.0 0.0 0.00 0.07 0.00 97 1010.7
20260906064531 72 275 0.0 0.0 0.00 0.07 0.00 97 1010.8
20260906063007 72 275 0.0 0.0 0.00 0.07 0.00 97 1011.0
20260906061514 72 275 0.0 0.0 0.00 0.07 0.00 97 1011.0
20260906060016 72 275 0.0 0.0 0.00 0.07 0.00 97 1011.1
20260906054510 73 275 0.0 0.0 0.00 0.07 0.00 97 1011.3
20260906053032 73 275 0.0 0.0 0.00 0.07 0.00 97 1011.4
20260906051513 73 275 0.0 0.0 0.00 0.07 0.00 97 1011.5
20260906050017 73 275 0.0 0.0 0.00 0.07 0.00 97 1011.6
20260906044523 73 275 0.0 0.0 0.00 0.07 0.00 97 1011.8
20260906043020 74 275 0.0 0.0 0.00 0.07 0.00 96 1011.8
20260906041514 74 275 0.0 0.0 0.00 0.07 0.00 96 1012.0
20260906040025 74 275 0.0 0.0 0.00 0.07 0.00 96 1012.1
20260906034526 74 275 0.0 0.0 0.00 0.07 0.07 96 1012.0
20260906033024 74 275 0.0 0.0 0.00 0.07 0.07 96 1011.9
20260906031535 74 275 0.0 0.0 0.00 0.07 0.07 97 1011.9
20260906030022 74 275 0.0 0.0 0.00 0.07 0.07 97 1011.7
20260906024518 74 275 0.0 0.0 0.00 0.07 0.07 97 1011.6
20260906023023 74 275 0.0 0.0 0.00 0.07 0.07 97 1011.7
20260906021528 74 275 0.0 0.0 0.00 0.07 0.07 97 1011.6
20260906020032 74 275 0.0 0.0 0.00 0.07 0.07 97 1011.7
20260906014530 74 275 0.0 0.0 0.00 0.07 0.07 97 1011.7
20260906013031 75 275 0.0 0.0 0.00 0.07 0.07 97 1011.6
20260906011518 75 275 0.0 0.0 0.00 0.07 0.07 97 1011.5
20260906010031 75 275 0.0 0.0 0.00 0.07 0.07 96 1011.4
20260906004529 75 275 0.0 0.0 0.00 0.07 0.07 96 1011.3
20260906003030 75 275 0.0 0.0 0.00 0.07 0.07 96 1011.3
20260906001505 75 275 0.0 0.0 0.00 0.07 0.07 95 1011.0
20260906000028 75 275 0.0 0.0 0.00 0.07 0.07 95 1010.8
20260905234507 75 275 0.0 0.0 0.00 0.07 0.07 95 1010.8
20260905233008 76 275 0.0 0.0 0.00 0.07 0.07 95 1010.6
20260905231522 76 275 0.0 0.0 0.00 0.07 0.07 95 1010.3
20260905230014 76 275 0.0 0.0 0.00 0.07 0.07 95 1009.9
20260905224508 76 275 0.0 0.0 0.00 0.07 0.07 95 1009.8
20260905223006 76 275 0.0 0.0 0.00 0.07 0.07 95 1009.7
20260905221513 75 275 0.0 0.0 0.00 0.07 0.07 95 1010.4
20260905220021 75 275 0.0 0.0 0.00 0.07 0.07 96 1010.7
20260905214518 75 275 0.0 0.0 0.01 0.07 0.07 95 1010.1
20260905213019 75 275 0.0 0.0 0.01 0.07 0.07 95 1010.1
20260905211509 75 275 0.0 0.0 0.01 0.07 0.07 95 1009.9
20260905210022 75 275 0.0 0.0 0.03 0.07 0.07 94 1009.8
20260905204531 75 275 0.0 0.0 0.06 0.06 0.06 94 1009.4
20260905203028 76 275 0.0 0.0 0.06 0.06 0.06 93 1009.8
20260905201525 76 275 0.0 0.0 0.06 0.06 0.06 90 1009.7
20260905200012 81 275 0.0 0.0 0.04 0.04 0.04 78 1010.0
20260905194512 82 279 0.0 0.0 0.00 0.00 0.00 70 1011.0
20260905193009 85 309 0.0 7.0 0.00 0.00 0.00 66 1010.9
20260905191535 94 295 0.0 0.0 0.00 0.00 0.00 53 1009.8
20260905190030 95 295 0.0 0.0 0.00 0.00 0.00 49 1009.4
20260905184519 95 295 0.0 0.0 0.00 0.00 0.00 50 1009.3
20260905183019 97 295 0.0 0.0 0.00 0.00 0.00 53 1009.5
20260905181520 97 295 0.0 0.0 0.00 0.00 0.00 50 1009.8
20260905180011 96 295 0.0 0.0 0.00 0.00 0.00 49 1010.1
20260905174534 96 295 0.0 0.0 0.00 0.00 0.00 50 1010.7
20260905173014 96 290 0.0 0.0 0.00 0.00 0.00 50 1011.1
20260905171534 96 182 0.0 0.0 0.00 0.00 0.00 50 1011.3
20260905170027 95 199 0.0 0.0 0.00 0.00 0.00 53 1011.6
20260905164518 95 199 0.0 0.0 0.00 0.00 0.00 53 1011.6
20260905163020 94 198 0.0 0.0 0.00 0.00 0.00 57 1011.8
20260905161518 93 198 0.0 0.0 0.00 0.00 0.00 57 1012.0
20260905160024 93 198 0.0 0.0 0.00 0.00 0.00 58 1012.2
20260905154530 92 198 0.0 0.0 0.00 0.00 0.00 59 1012.5
20260905153025 91 197 0.0 0.0 0.00 0.00 0.00 61 1012.7
20260905151526 90 197 0.0 0.0 0.00 0.00 0.00 62 1012.7
20260905150033 90 197 0.0 0.0 0.00 0.00 0.00 65 1012.6
20260905144505 88 197 0.0 0.0 0.00 0.00 0.00 68 1012.8
20260905143006 87 197 0.0 0.0 0.00 0.00 0.00 72 1012.7
20260905141507 86 197 0.0 0.0 0.00 0.00 0.00 72 1012.5
20260905140007 85 195 0.0 0.0 0.00 0.00 0.00 74 1012.5
20260905134525 84 195 0.0 0.0 0.00 0.00 0.00 75 1012.5
20260905133006 83 195 0.0 0.0 0.00 0.00 0.00 79 1012.5
20260905131518 82 195 0.0 0.0 0.00 0.00 0.00 81 1012.5
20260905130011 81 195 0.0 0.0 0.00 0.00 0.00 83 1012.5
20260905124510 79 195 0.0 0.0 0.00 0.00 0.00 85 1012.8
20260905123009 78 194 0.0 0.0 0.00 0.00 0.00 88 1012.8
20260905121508 76 194 0.0 0.0 0.00 0.00 0.00 91 1012.7